Weather Roundup
Issued by NWS Chicago, IL

Home | Current Version | Previous Version | Graphics & Text | Print | Product List | Glossary On
Versions: 1 2 3 4 5 6 7 8 9 10 11 12 13 14 15 16 17 18 19 20 21 22 23 24 25 26 27 28 29 30 31 32 33 34 35 36 37 38 39 40 41 42 43 44 45 46 47 48 49 50
000
NZUS59 KLOT 190804
HRRLOT

CHICAGO AREA WEATHER ROUNDUP
NATIONAL WEATHER SERVICE CHICAGO/ROMEOVILLE IL
300 AM CDT TUE SEP 19 2017

NOTE: "FAIR" INDICATES FEW OR NO CLOUDS BELOW 12,000 FEET WITH NO
SIGNIFICANT WEATHER AND/OR OBSTRUCTIONS TO VISIBILITY.

* THESE STATIONS ARE NOT UNDER NWS QUALITY CONTROL. THEY ALSO MAY NOT
  REPORT WEATHER SUCH AS PRECIPITATION OR FOG.

ILZ005-006-012>014-019>023-190900-
NORTHEAST ILLINOIS

CITY           SKY/WX    TMP DP  RH WIND       PRES   REMARKS
OHARE          LGT RAIN  67  63  87 N3        29.94F
MIDWAY         LGT RAIN  68  65  90 CALM      29.94F FOG
AURORA         LGT RAIN  62  62 100 NE3       29.95S
LANSING*       HVY RAIN  64  64 100 CALM      29.94F
JOLIET*        CLOUDY    64  64  98 CALM      29.94F
WAUKEGAN       CLOUDY    64  32  30 CALM      29.95S
DUPAGE AIRPORT CLOUDY    63  63 100 E3        29.95F FOG
WHEELING       CLOUDY    67  65  93 CALM      29.96S
MORRIS*        LGT RAIN  62  61  96 CALM      29.93F
LEWIS AIRPORT* LGT RAIN  63  62  97 N6        29.95F
NORTHERLY ISL    N/A     67  64  90 N3          N/A
$$

WIZ051-052-058>065-066-070>072-190900-
SOUTHEAST WISCONSIN

CITY           SKY/WX    TMP DP  RH WIND       PRES   REMARKS
MILWAUKEE      CLOUDY    65  62  90 NE3       29.96F
KENOSHA*       CLOUDY    63  60  90 CALM      29.97S
RACINE*        CLOUDY    63  62  97 N3        29.97F
$$

INZ001>003-010>013-019-020-190900-
NORTHWEST INDIANA

CITY           SKY/WX    TMP DP  RH WIND       PRES   REMARKS
GARY*          RAIN      66  66 100 CALM      29.95S
MICHIGAN CITY* NOT AVBL
RENSSELAER*    NOT AVBL
VALPARAISO     RAIN      65  63  93 NE9       29.94F FOG
$$

LMZ740>746-190900-
SOUTHERN LAKE MICHIGAN

STATION/POSITION TIME  SKY/WX   TEMP WIND        PRES    VSBY
                                AIR  DIR/SP/G
                 (UTC)          (F)  (DEG/KT/KT) (MB)    (MI)
HARRISON CRIB    0740            69   90/  4/  5   N/A
BURNHAM HARBOR   NOT AVBL
CALUMET HARBOR   0730            66  330/  2/  2 1013.4F
BURNS HARBOR     0740            66  100/  4/  5 1014.2F
MICHIGAN CITY    0740            65  110/  5/  5   N/A
$$

ABBREVIATIONS USED IN REMARKS
   TC - TEMPERATURE IN CELSIUS
  WCI - WIND CHILL INDEX
   HX - HEAT INDEX
  VSB - VISIBILITY
$$




USA.gov is the U.S. government's official web portal to all federal, state and local government web resources and services.